Weather History for Seattle Boeing, WA

Change the Weather History Date:

Sunday, February 3, 2013

  Actual Average Record
Temperature  
Mean Temperature 44 °F -  
Max Temperature 50 °F 48 °F 63 °F (1992)
Min Temperature 39 °F 36 °F 8 °F (1950)
Degree Days  
Heating Degree Days 20    
Moisture  
Dew Point 39 °F    
Average Humidity 84    
Maximum Humidity 93    
Minimum Humidity 71    
Precipitation  
Precipitation 0.08 in - - ()
Sea Level Pressure  
Sea Level Pressure 30.27 in    
Wind  
Wind Speed 7 mph (SSE)    
Max Wind Speed 10 mph    
Max Gust Speed -    
Visibility 8 miles    
Events Rain    
Averages and records for this station are not official NWS values.
T = Trace of Precipitation, MM = Missing Value Source: NWS Daily Summary

Daily Weather History Graph

Daily Weather History Graph

Search for Another Location

Airport:

Trip Planner

Search our weather history database for the weather conditions in past years. The results will help you decide how hot, cold, wet, or windy it might be!

Date:

Astronomy

Feb. 03, 2013 Rise Set
Actual Time 7:32 AM PST 5:14 PM PST
Civil Twilight 6:59 AM PST 5:47 PM PST
Nautical Twilight 6:23 AM PST 6:23 PM PST
Astronomical Twilight 5:47 AM PST 6:59 PM PST
Moon 1:07 AM PST (2/3) 10:52 AM PST (2/3)
Length of Visible Light 10h 47m
Length of Day
9h 41m
Waning Gibbous, 47% of the Moon is Illuminated
Feb 3
Waning Gibbous
Feb 9
New
Feb 17
First Quarter
Feb 25
Full
Mar 4
Last Quarter

Hourly Weather History & Observations

Time (PST) Temp. Windchill Dew Point Humidity Pressure Visibility Wind Dir Wind Speed Gust Speed Precip Events Conditions
12:53 AM 39.0 °F 32.8 °F 36.0 °F 89% 30.29 in 0.8 mi SE 9.2 mph - N/A   Mist
1:00 AM 39.2 °F 34.2 °F 37.4 °F 93% 30.30 in 1.0 mi SE 6.9 mph - N/A   Mist
1:14 AM 39.2 °F 35.0 °F 37.4 °F 93% 30.30 in 3.0 mi SSE 5.8 mph - N/A   Overcast
1:53 AM 39.0 °F 33.4 °F 36.0 °F 89% 30.28 in 6.0 mi SSE 8.1 mph - N/A   Overcast
2:41 AM 39.2 °F 35.9 °F 35.6 °F 87% 30.29 in 9.0 mi SSE 4.6 mph - N/A   Overcast
2:53 AM 39.9 °F 35.1 °F 36.0 °F 86% 30.28 in 9.0 mi SSE 6.9 mph - N/A   Overcast
3:53 AM 39.9 °F 33.9 °F 36.0 °F 86% 30.26 in 10.0 mi SE 9.2 mph - N/A   Overcast
4:53 AM 41.0 °F 36.4 °F 37.0 °F 86% 30.29 in 10.0 mi SE 6.9 mph - N/A   Overcast
5:11 AM 41.0 °F 35.8 °F 37.4 °F 87% 30.29 in 10.0 mi SSE 8.1 mph - N/A   Overcast
5:53 AM 39.9 °F 34.5 °F 36.0 °F 86% 30.27 in 10.0 mi SE 8.1 mph - N/A   Overcast
6:21 AM 39.2 °F 35.0 °F 35.6 °F 87% 30.30 in 10.0 mi SE 5.8 mph - N/A   Overcast
6:53 AM 39.9 °F 35.8 °F 37.0 °F 89% 30.29 in 4.0 mi SE 5.8 mph - 0.00 in   Overcast
7:53 AM 42.1 °F 38.4 °F 39.0 °F 89% 30.30 in 4.0 mi SE 5.8 mph - 0.01 in   Overcast
8:14 AM 42.8 °F 39.3 °F 39.2 °F 87% 30.30 in 5.0 mi SE 5.8 mph - N/A   Overcast
8:53 AM 44.1 °F 39.5 °F 39.9 °F 85% 30.30 in 8.0 mi SSE 8.1 mph - N/A   Overcast
9:53 AM 44.1 °F 38.6 °F 39.9 °F 85% 30.30 in 10.0 mi SE 10.4 mph - N/A   Overcast
10:25 AM 44.6 °F 39.7 °F 41.0 °F 87% 30.30 in 10.0 mi SE 9.2 mph - N/A   Overcast
10:53 AM 45.0 °F 40.1 °F 39.9 °F 82% 30.30 in 10.0 mi SE 9.2 mph - N/A   Overcast
11:22 AM 46.4 °F 41.9 °F 39.2 °F 76% 30.30 in 10.0 mi SE 9.2 mph - N/A   Overcast
11:53 AM 46.9 °F - 41.0 °F 80% 30.29 in 10.0 mi SE 6.9 mph - N/A   Overcast
12:53 PM 48.0 °F - 41.0 °F 77% 30.28 in 10.0 mi SSE 4.6 mph - N/A   Overcast
1:53 PM 48.9 °F - 41.0 °F 74% 30.26 in 10.0 mi SE 8.1 mph - N/A   Overcast
2:53 PM 50.0 °F - 41.0 °F 71% 30.25 in 10.0 mi SSE 8.1 mph - N/A   Overcast
3:53 PM 48.9 °F - 41.0 °F 74% 30.25 in 10.0 mi South 8.1 mph - N/A   Overcast
4:53 PM 48.0 °F - 41.0 °F 77% 30.25 in 10.0 mi SSE 4.6 mph - N/A   Overcast
5:53 PM 46.9 °F - 42.1 °F 83% 30.25 in 8.0 mi SSE 6.9 mph - 0.01 in Rain Light Rain
6:53 PM 46.0 °F 42.5 °F 43.0 °F 89% 30.24 in 5.0 mi SE 6.9 mph - 0.03 in Rain Light Rain
7:53 PM 46.9 °F - 43.0 °F 86% 30.22 in 8.0 mi SSE 6.9 mph - 0.02 in Rain Light Rain
8:53 PM 46.0 °F 44.8 °F 42.1 °F 86% 30.22 in 6.0 mi Variable 3.5 mph - 0.00 in   Overcast
9:53 PM 46.9 °F - 42.1 °F 83% 30.23 in 10.0 mi Variable 3.5 mph - N/A   Overcast
10:53 PM 46.9 °F - 42.1 °F 83% 30.22 in 10.0 mi Calm Calm - 0.01 in   Overcast
11:17 PM 46.4 °F 45.2 °F 41.0 °F 81% 30.23 in 10.0 mi South 3.5 mph - N/A   Overcast
11:38 PM 46.4 °F 44.3 °F 41.0 °F 81% 30.21 in 10.0 mi SE 4.6 mph - N/A   Overcast
11:53 PM 46.0 °F 43.9 °F 41.0 °F 83% 30.22 in 10.0 mi SSE 4.6 mph - N/A   Overcast